{"data":{"norad_id":67299,"intl_designator":"2025-313BD","name":"2025-313BD","alt_names":[],"object_type":"PAYLOAD","status":"ACTIVE","operator":null,"country":"TBD","launch_date":"2025-12-28","launch_site_code":"VOSTO","launch_vehicle":null,"mission":null,"orbit_class":"UNKNOWN","rcs_meters":null,"size_class":null,"mass_kg":null,"dimensions":null,"purposes":[],"wikipedia_slug":null,"has_3d_model":false,"image_url":null,"decayed_at":null,"tle_current":{"epoch":"2026-08-09T22:36:40.865760Z","epoch_age_seconds":3693661,"freshness":"OLD","line1":"1 67299U 25313BD  26221.94213965  .05532030  24953-5  11918-2 0  9997","line2":"2 67299  97.4010 302.3780 0014446 242.8767 117.1055 16.30388144 34560","mean_motion":16.30388144,"eccentricity":0.0014446,"inclination_deg":97.401,"raan_deg":302.378,"arg_perigee_deg":242.8767,"mean_anomaly_deg":117.1055,"bstar":0.0011918,"rev_number":3456,"period_min":88.322526467047,"perigee_km":182.00641088966,"apogee_km":200.98739716518,"semimajor_km":6569.6339040274,"source":"CELESTRAK","updated_at":"2026-08-12T09:00:34.249316Z"}}}